When you browse on this site, cookies collect data to enhance your experience and personalize the content and advertising you see.
Visit our Privacy Policy to learn more. By continuing to use the site, you agree to this use of cookies and data.
  • în România
  • Lista ţărilor
  • Pe 7 zile
  • Temperatura apei
  • Hartă satelitară
  • Meteo pe hartă
  • Widget-uri
  • user-avatar
    Intrare

    Meteo pe oră la Guwahati

    Astăzi, 16 Februarie, Sâmbătă

    Timp Temperatura Precipitaţii Vânt Presiune Umiditate
    00:00 +20°C° 0 mm 0 m/s 758 mmHg 61%
    01:00 +20°C° 0.1 mm 0 m/s 758 mmHg 63%
    02:00 +19°C° 0.1 mm 0 m/s 758 mmHg 65%
    03:00 +21°C° 0.1 mm 1 m/s 757 mmHg 66%
    04:00 +21°C° 0 mm 1 m/s 758 mmHg 67%
    05:00 +18°C° 0 mm 0 m/s 758 mmHg 68%
    06:00 +18°C° 0 mm 0 m/s 758 mmHg 69%
    07:00 +22°C° 0 mm 1 m/s 758 mmHg 64%
    08:00 +23°C° 0 mm 1 m/s 758 mmHg 58%
    09:00 +25°C° 0 mm 1 m/s 759 mmHg 53%
    10:00 +25°C° 0.2 mm 1 m/s 758 mmHg 53%
    11:00 +26°C° 0.2 mm 2 m/s 758 mmHg 53%
    12:00 +26°C° 0.2 mm 3 m/s 758 mmHg 52%
    13:00 +25°C° 0.1 mm 2 m/s 757 mmHg 56%
    14:00 +25°C° 0.1 mm 2 m/s 757 mmHg 60%
    15:00 +24°C° 0.1 mm 2 m/s 756 mmHg 64%
    16:00 +23°C° 0 mm 1 m/s 756 mmHg 65%
    17:00 +23°C° 0 mm 1 m/s 755 mmHg 66%
    18:00 +20°C° 0 mm 0 m/s 755 mmHg 67%
    19:00 +19°C° 0.1 mm 0 m/s 755 mmHg 69%
    20:00 +19°C° 0.1 mm 0 m/s 756 mmHg 71%
    21:00 +18°C° 0.1 mm 0 m/s 756 mmHg 73%
    22:00 +20°C° 0.5 mm 1 m/s 756 mmHg 75%
    23:00 +20°C° 0.5 mm 1 m/s 756 mmHg 76%

    Mâine, 17 Februarie, Duminică

    Timp Temperatura Precipitaţii Vânt Presiune Umiditate
    00:00 +20°C° 0.5 mm 1 m/s 756 mmHg 77%
    01:00 +17°C° 0.8 mm 0 m/s 756 mmHg 79%
    02:00 +17°C° 0.8 mm 0 m/s 755 mmHg 81%
    03:00 +16°C° 0.8 mm 0 m/s 755 mmHg 83%
    04:00 +16°C° 0.4 mm 0 m/s 755 mmHg 84%
    05:00 +18°C° 0.4 mm 1 m/s 755 mmHg 86%
    06:00 +16°C° 0.4 mm 1 m/s 755 mmHg 88%
    07:00 +19°C° 0.3 mm 1 m/s 756 mmHg 82%
    08:00 +20°C° 0.3 mm 1 m/s 756 mmHg 77%
    09:00 +21°C° 0.3 mm 2 m/s 756 mmHg 71%
    10:00 +23°C° 0.4 mm 2 m/s 756 mmHg 65%
    11:00 +24°C° 0.4 mm 1 m/s 755 mmHg 58%
    12:00 +26°C° 0.4 mm 1 m/s 755 mmHg 52%
    13:00 +26°C° 0 mm 2 m/s 754 mmHg 49%
    14:00 +27°C° 0 mm 3 m/s 753 mmHg 46%
    15:00 +28°C° 0 mm 4 m/s 752 mmHg 43%
    16:00 +26°C° 0 mm 3 m/s 752 mmHg 46%
    17:00 +25°C° 0 mm 2 m/s 753 mmHg 50%
    18:00 +24°C° 0 mm 1 m/s 753 mmHg 54%
    19:00 +23°C° 0.2 mm 1 m/s 753 mmHg 58%
    20:00 +22°C° 0.2 mm 1 m/s 754 mmHg 63%
    21:00 +20°C° 0.2 mm 1 m/s 754 mmHg 67%
    22:00 +20°C° 0.1 mm 1 m/s 754 mmHg 69%
    23:00 +20°C° 0.1 mm 1 m/s 754 mmHg 71%

    Poimâine, 18 Februarie, Luni

    Timp Temperatura Precipitaţii Vânt Presiune Umiditate
    00:00 +19°C° 0.1 mm 1 m/s 755 mmHg 73%
    01:00 +18°C° 0.1 mm 2 m/s 754 mmHg 73%
    02:00 +18°C° 0.1 mm 2 m/s 754 mmHg 73%
    03:00 +18°C° 0.1 mm 2 m/s 754 mmHg 73%
    04:00 +17°C° 0.5 mm 2 m/s 754 mmHg 76%
    05:00 +17°C° 0.5 mm 2 m/s 754 mmHg 78%
    06:00 +17°C° 0.5 mm 2 m/s 755 mmHg 80%
    07:00 +17°C° 0.4 mm 2 m/s 755 mmHg 78%
    08:00 +18°C° 0.4 mm 2 m/s 756 mmHg 77%
    09:00 +18°C° 0.4 mm 2 m/s 756 mmHg 76%
    10:00 +19°C° 0 mm 2 m/s 756 mmHg 71%
    11:00 +21°C° 0 mm 3 m/s 756 mmHg 66%
    12:00 +22°C° 0 mm 3 m/s 755 mmHg 61%
    13:00 +24°C° 0 mm 3 m/s 755 mmHg 57%
    14:00 +25°C° 0 mm 3 m/s 754 mmHg 54%
    15:00 +26°C° 0 mm 2 m/s 753 mmHg 51%
    16:00 +24°C° 0 mm 2 m/s 753 mmHg 56%
    17:00 +23°C° 0 mm 2 m/s 754 mmHg 61%
    18:00 +21°C° 0 mm 2 m/s 754 mmHg 66%
    19:00 +21°C° 0.2 mm 1 m/s 754 mmHg 69%
    20:00 +20°C° 0.2 mm 1 m/s 755 mmHg 72%
    21:00 +19°C° 0.2 mm 1 m/s 756 mmHg 76%
    22:00 +19°C° 0.2 mm 1 m/s 756 mmHg 77%
    23:00 +18°C° 0.2 mm 1 m/s 756 mmHg 79%

    19 Februarie, Marţi

    Timp Temperatura Precipitaţii Vânt Presiune Umiditate
    00:00 +17°C° 0.2 mm 2 m/s 756 mmHg 80%
    01:00 +17°C° 0.1 mm 2 m/s 756 mmHg 82%
    02:00 +17°C° 0.1 mm 2 m/s 755 mmHg 83%
    03:00 +16°C° 0.1 mm 2 m/s 755 mmHg 84%
    04:00 +16°C° 0 mm 2 m/s 755 mmHg 83%
    05:00 +16°C° 0 mm 2 m/s 756 mmHg 83%
    06:00 +16°C° 0 mm 2 m/s 756 mmHg 83%
    07:00 +17°C° 0 mm 3 m/s 757 mmHg 77%
    08:00 +19°C° 0 mm 3 m/s 757 mmHg 71%
    09:00 +20°C° 0 mm 3 m/s 758 mmHg 65%
    10:00 +22°C° 0 mm 3 m/s 758 mmHg 60%
    11:00 +24°C° 0 mm 3 m/s 758 mmHg 56%
    12:00 +26°C° 0 mm 3 m/s 757 mmHg 51%
    13:00 +26°C° 0 mm 3 m/s 757 mmHg 49%
    14:00 +27°C° 0 mm 3 m/s 756 mmHg 46%
    15:00 +27°C° 0 mm 2 m/s 755 mmHg 44%
    16:00 +26°C° 0 mm 2 m/s 756 mmHg 49%
    17:00 +24°C° 0 mm 2 m/s 756 mmHg 55%
    18:00 +23°C° 0 mm 2 m/s 756 mmHg 60%
    19:00 +21°C° 0.1 mm 2 m/s 757 mmHg 62%
    20:00 +20°C° 0.1 mm 2 m/s 758 mmHg 64%
    21:00 +20°C° 0.1 mm 2 m/s 759 mmHg 66%
    22:00 +19°C° 0 mm 2 m/s 759 mmHg 68%
    23:00 +19°C° 0 mm 2 m/s 759 mmHg 70%

    20 Februarie, Miercuri

    Timp Temperatura Precipitaţii Vânt Presiune Umiditate
    00:00 +18°C° 0 mm 2 m/s 758 mmHg 71%
    01:00 +18°C° 0 mm 2 m/s 758 mmHg 73%
    02:00 +17°C° 0 mm 2 m/s 758 mmHg 74%
    03:00 +17°C° 0 mm 3 m/s 758 mmHg 76%
    04:00 +17°C° 0 mm 3 m/s 758 mmHg 76%
    05:00 +16°C° 0 mm 3 m/s 758 mmHg 76%
    06:00 +16°C° 0 mm 3 m/s 758 mmHg 77%
    07:00 +18°C° 0 mm 3 m/s 759 mmHg 72%
    08:00 +19°C° 0 mm 4 m/s 760 mmHg 66%
    09:00 +21°C° 0 mm 4 m/s 760 mmHg 61%
    10:00 +22°C° 0 mm 4 m/s 760 mmHg 56%
    11:00 +23°C° 0 mm 4 m/s 759 mmHg 52%
    12:00 +26°C° 0 mm 4 m/s 759 mmHg 47%
    13:00 +26°C° 0 mm 3 m/s 758 mmHg 45%
    14:00 +27°C° 0 mm 3 m/s 758 mmHg 44%
    15:00 +27°C° 0 mm 3 m/s 757 mmHg 42%
    16:00 +26°C° 0 mm 3 m/s 757 mmHg 48%
    17:00 +24°C° 0 mm 2 m/s 758 mmHg 54%
    18:00 +21°C° 0 mm 2 m/s 758 mmHg 61%
    19:00 +21°C° 0 mm 2 m/s 758 mmHg 63%
    20:00 +20°C° 0 mm 2 m/s 759 mmHg 65%
    21:00 +20°C° 0 mm 1 m/s 760 mmHg 67%
    22:00 +19°C° 0 mm 2 m/s 760 mmHg 68%
    23:00 +18°C° 0 mm 2 m/s 760 mmHg 70%

    21 Februarie, Joi

    Timp Temperatura Precipitaţii Vânt Presiune Umiditate
    00:00 +18°C° 0 mm 2 m/s 760 mmHg 71%
    01:00 +18°C° 0 mm 2 m/s 760 mmHg 73%
    02:00 +17°C° 0 mm 2 m/s 760 mmHg 74%
    03:00 +17°C° 0 mm 2 m/s 759 mmHg 76%
    04:00 +17°C° 0 mm 2 m/s 759 mmHg 76%
    05:00 +17°C° 0 mm 2 m/s 759 mmHg 77%
    06:00 +16°C° 0 mm 3 m/s 759 mmHg 77%
    07:00 +18°C° 0 mm 3 m/s 760 mmHg 70%
    08:00 +20°C° 0 mm 4 m/s 760 mmHg 63%
    09:00 +22°C° 0 mm 4 m/s 761 mmHg 56%
    10:00 +23°C° 0 mm 4 m/s 760 mmHg 51%
    11:00 +26°C° 0 mm 4 m/s 760 mmHg 47%
    12:00 +27°C° 0 mm 4 m/s 759 mmHg 42%
    13:00 +28°C° 0 mm 4 m/s 758 mmHg 41%
    14:00 +28°C° 0 mm 3 m/s 758 mmHg 40%
    15:00 +29°C° 0 mm 3 m/s 757 mmHg 39%
    16:00 +27°C° 0 mm 3 m/s 757 mmHg 43%
    17:00 +26°C° 0 mm 2 m/s 757 mmHg 47%
    18:00 +24°C° 0 mm 1 m/s 757 mmHg 52%
    19:00 +23°C° 0 mm 1 m/s 758 mmHg 54%
    20:00 +23°C° 0 mm 1 m/s 758 mmHg 56%
    21:00 +22°C° 0 mm 1 m/s 759 mmHg 58%
    22:00 +21°C° 0 mm 1 m/s 759 mmHg 60%
    23:00 +21°C° 0 mm 1 m/s 758 mmHg 62%
    Arată mai mult